Date,TemperatureHighF,TemperatureAvgF,TemperatureLowF,DewpointHighF,DewpointAvgF,DewpointLowF,HumidityHigh,HumidityAvg,HumidityLow,PressureMaxIn,PressureMinIn,WindSpeedMaxMPH,WindSpeedAvgMPH,GustSpeedMaxMPH,PrecipitationSumIn
2013-3-11,48.0,47.1,47.0,45.6,45.2,44.5,95,93,88,29.69,29.67,2,0,9,0.00
2013-3-12,57.0,49.6,44.0,47.4,45.0,43.4,99,85,64,30.11,29.21,23,5,25,0.00
2013-3-13,65.0,52.8,45.0,48.2,44.0,39.6,92,73,49,30.16,30.05,12,4,19,0.00
2013-3-14,64.0,49.9,44.0,45.6,43.0,38.9,95,79,44,30.13,29.99,20,4,27,0.00
2013-3-15,59.0,51.3,45.0,47.4,45.3,43.1,99,81,61,30.18,30.07,15,4,19,0.00
2013-3-16,50.0,44.5,34.0,45.4,40.6,32.4,98,87,65,30.08,29.85,35,7,41,0.16
2013-3-17,45.0,38.6,33.0,34.3,31.7,28.8,99,77,54,30.14,29.95,33,12,43,0.01
2013-3-18,51.0,41.8,35.0,35.3,32.3,30.5,89,70,47,30.15,30.11,26,8,32,0.00
2013-3-19,46.0,37.8,30.0,38.0,31.9,28.4,100,81,54,30.13,29.79,13,1,15,0.27
2013-3-20,53.0,39.8,35.0,41.1,36.3,29.2,100,89,56,32.42,29.63,40,7,53,0.41
2013-3-21,45.0,37.7,35.0,34.2,29.5,27.5,87,73,56,32.60,30.09,29,14,40,0.51
2013-3-24,47.0,44.3,41.0,28.4,25.5,22.7,55,48,38,30.14,30.10,5,1,9,0.00
2013-3-25,57.0,44.7,32.0,33.6,28.2,23.3,77,54,31,32.03,29.95,16,2,17,0.01
2013-3-26,43.0,39.5,39.0,30.5,29.2,28.6,69,67,61,32.76,32.07,4,0,4,0.00
2013-3-29,66.0,56.6,50.0,47.4,45.2,42.8,82,67,43,30.15,30.10,8,1,9,0.00
2013-3-30,73.0,55.8,40.0,47.0,41.9,33.5,98,64,34,30.21,30.04,12,2,17,0.00
2013-3-31,74.0,56.6,41.0,46.0,39.6,30.7,87,56,29,30.04,29.88,11,2,15,0.00
2013-4-1,62.0,56.9,52.0,48.9,47.1,45.0,84,70,55,30.07,29.92,27,13,40,0.00
2013-4-2,62.0,55.8,50.0,48.3,45.4,43.5,84,69,51,30.14,30.06,25,12,32,0.00
2013-4-3,67.0,55.2,43.0,48.4,44.3,36.0,99,69,40,30.10,29.92,10,2,15,0.01
2013-4-4,58.0,52.4,50.0,53.7,48.5,45.0,99,87,75,29.92,29.72,12,1,15,0.12
2013-4-5,58.0,50.7,46.0,49.6,46.9,44.1,99,87,65,29.95,29.82,22,4,23,0.05
2013-4-6,52.0,45.8,41.0,46.0,42.9,39.1,100,90,67,30.07,29.82,20,4,26,0.40
2013-4-7,50.0,42.8,39.0,41.8,39.2,35.9,100,88,62,29.98,29.63,20,6,32,0.55
2013-4-8,55.0,46.1,40.0,41.4,37.2,33.4,86,72,54,30.52,29.98,25,11,27,0.00
2013-4-9,60.0,46.7,35.0,42.9,37.3,27.9,100,72,39,32.87,30.27,16,4,19,0.00
2013-4-10,48.0,48.0,48.0,40.4,40.4,40.4,75,75,75,0.00,0.00,3,3,0,0.00
2013-4-11,47.0,44.7,43.0,39.1,38.0,36.9,83,77,71,30.14,30.10,7,3,11,0.00
2013-4-12,53.0,44.0,33.0,41.9,36.1,26.7,100,76,46,30.10,29.72,23,6,30,0.00
2013-4-13,48.0,42.2,35.0,41.7,33.6,28.6,94,72,48,29.98,29.71,32,17,41,0.02
2013-4-14,52.0,43.3,38.0,36.7,33.6,30.1,89,70,45,29.99,29.86,21,8,27,0.00
2013-4-15,53.0,42.0,37.0,40.4,35.4,30.0,96,79,45,30.09,29.87,17,4,21,0.03
2013-4-16,56.0,43.3,34.0,39.5,34.6,25.3,100,75,33,30.34,30.09,12,2,16,0.00
2013-4-17,59.0,44.7,30.0,38.1,33.2,25.9,100,68,36,30.43,30.34,21,5,26,0.00
2013-4-18,56.0,49.4,45.0,46.1,38.7,34.3,93,67,52,30.40,30.24,26,12,30,0.00
2013-4-19,57.0,50.7,47.0,47.6,45.5,42.4,97,83,65,30.25,30.07,29,10,37,0.01
2013-4-20,56.0,51.1,47.0,45.2,40.7,37.5,90,68,54,30.26,30.18,27,14,34,0.00
2013-4-21,54.0,47.9,44.0,42.9,40.1,37.5,90,74,59,30.26,30.13,33,12,43,0.00
2013-4-22,62.0,49.2,35.0,41.3,31.5,23.2,100,57,26,30.46,30.26,16,2,21,0.00
2013-4-23,67.0,49.2,31.0,36.0,27.2,19.6,78,46,24,30.38,30.16,8,1,13,0.00
2013-4-24,75.0,55.0,35.0,38.7,30.6,22.8,72,43,20,30.71,30.09,6,1,12,0.00
2013-4-25,73.0,59.5,46.0,44.9,39.6,35.3,71,50,31,31.09,29.98,18,6,25,2.50
2013-4-26,77.0,63.6,49.0,45.6,40.9,34.5,84,48,24,30.21,30.10,19,9,25,0.00
2013-4-27,69.0,59.6,50.0,43.6,38.2,30.8,66,47,25,30.21,30.14,30,9,36,0.00
2013-4-28,63.0,55.0,49.0,46.6,42.6,37.1,90,65,40,30.21,29.98,23,10,31,0.00
2013-4-29,57.0,50.1,42.0,46.3,35.9,27.4,87,60,34,30.08,29.95,37,16,45,0.00
2013-4-30,53.0,44.1,40.0,33.1,29.9,26.5,70,58,41,30.36,30.08,24,8,32,0.00
2013-5-1,69.0,51.2,32.0,34.4,29.8,24.1,95,50,21,30.55,30.36,8,1,13,0.03
2013-5-2,79.0,58.6,38.0,42.9,31.7,22.8,67,39,19,30.52,30.22,9,1,15,0.00
2013-5-3,81.0,64.5,46.0,45.7,39.9,33.4,79,44,23,30.32,30.14,11,2,14,0.00
2013-5-4,83.0,66.4,47.0,43.4,36.8,31.6,76,38,18,30.18,29.98,14,1,20,0.00
2013-5-5,84.0,68.7,50.0,43.6,37.9,29.8,56,34,20,30.01,29.80,16,2,22,0.00
2013-5-6,84.0,67.1,49.0,52.3,43.9,35.8,68,45,24,29.98,29.74,16,4,21,0.00
2013-5-7,76.0,66.2,57.0,51.2,48.5,44.9,68,54,38,30.18,29.84,21,11,33,0.00
2013-5-8,70.0,62.8,55.0,52.6,49.9,46.5,79,64,50,31.79,29.98,23,12,28,0.00
2013-5-9,61.0,58.1,58.0,51.7,49.5,49.4,75,75,70,32.88,31.84,20,10,27,0.00
2013-5-12,69.0,66.8,65.0,55.0,53.0,51.6,63,61,58,32.93,30.74,23,13,31,0.00
2013-5-15,61.0,55.6,52.0,50.0,47.7,45.9,93,76,58,30.51,30.01,17,8,21,0.00
2013-5-16,72.0,57.1,47.0,52.6,48.4,42.3,100,76,39,30.07,29.79,17,4,27,0.00
2013-5-17,65.0,54.7,48.0,50.7,46.5,41.3,100,77,45,30.05,29.90,23,9,27,0.23
2013-5-18,60.0,53.4,49.0,49.3,47.1,43.2,97,80,58,30.23,30.05,26,9,31,0.00
2013-5-19,65.0,57.7,50.0,49.3,47.6,45.6,95,71,52,30.29,30.23,23,10,30,0.00
2013-5-20,75.0,60.3,43.0,49.6,45.9,40.4,100,64,34,30.32,29.82,15,4,22,0.00
2013-5-21,60.0,50.0,40.0,47.9,43.0,39.1,99,78,51,29.97,29.72,25,9,28,0.09
2013-5-22,47.0,43.1,41.0,44.7,41.1,38.0,100,93,84,30.01,29.94,11,3,15,0.18
2013-5-23,55.0,46.8,40.0,47.9,43.8,40.0,100,90,68,30.08,29.99,10,2,14,0.08
2013-5-24,60.0,51.1,44.0,48.9,45.5,41.5,100,83,55,30.09,29.98,19,6,25,0.27
2013-5-25,66.0,55.4,43.0,49.8,45.9,42.3,100,74,47,30.09,29.88,15,4,18,0.01
2013-5-26,65.0,56.5,50.0,53.0,49.6,46.5,100,80,54,30.00,29.92,20,6,28,0.25
2013-5-27,59.0,51.2,46.0,57.2,50.5,44.4,100,98,80,29.99,29.75,8,1,10,0.33
2013-5-28,63.0,55.0,48.0,52.8,48.7,46.0,100,81,58,29.89,29.78,27,6,29,0.00
2013-5-29,59.0,52.1,48.0,53.4,50.0,47.8,100,93,72,30.03,29.70,25,4,29,0.58
2013-5-30,63.0,53.7,46.0,49.3,45.7,41.8,100,76,49,30.23,30.03,25,9,29,0.00
2013-5-31,71.0,58.1,43.0,50.1,46.2,40.4,100,69,40,30.31,30.12,11,5,16,0.00
2013-6-1,75.0,60.9,47.0,54.5,49.6,45.7,100,69,42,30.23,29.91,16,5,22,0.00
2013-6-2,72.0,62.6,53.0,53.5,50.5,47.0,95,67,46,29.99,29.87,22,10,28,0.00
2013-6-3,74.0,62.3,49.0,54.0,51.0,47.6,100,69,44,30.07,29.86,19,8,27,0.00
2013-6-4,86.0,68.8,50.0,54.2,48.9,43.2,98,55,24,30.10,29.82,13,2,18,0.00
2013-6-5,83.0,69.6,53.0,59.2,51.3,44.2,83,55,29,30.04,29.79,23,6,24,0.00
2013-6-6,82.0,70.6,59.0,60.2,57.1,53.2,96,65,41,29.95,29.77,22,9,26,0.00
2013-6-7,77.0,67.3,60.0,56.5,47.2,35.0,74,51,25,30.03,29.89,28,12,36,0.00
2013-6-8,78.0,66.0,54.0,53.8,47.7,38.8,88,55,29,30.07,29.87,29,12,32,0.00
2013-6-9,73.0,63.0,53.0,54.6,48.8,44.7,88,62,38,30.01,29.81,30,12,34,0.00
2013-6-10,68.0,55.9,50.0,49.2,46.3,43.6,88,71,43,29.93,29.77,21,11,28,0.00
2013-6-11,63.0,55.8,51.0,48.3,44.5,41.3,82,66,48,30.10,29.87,31,13,36,0.00
2013-6-12,66.0,56.8,47.0,49.5,45.2,39.8,99,68,40,30.14,30.01,28,10,32,0.00
2013-6-13,64.0,56.1,49.0,50.9,47.3,44.4,99,74,51,30.21,30.08,29,11,34,0.00
2013-6-14,71.0,60.8,51.0,53.0,47.9,43.1,85,64,44,30.22,29.93,19,9,26,0.00
2013-6-15,85.0,66.6,47.0,56.3,48.5,41.0,99,59,22,30.00,29.70,14,4,23,0.00
2013-6-16,74.0,65.3,58.0,55.9,52.9,48.4,87,66,46,30.02,29.86,26,12,37,0.03
2013-6-17,77.0,67.0,58.0,56.4,52.2,48.5,88,62,37,30.02,29.77,20,9,28,0.00
2013-6-18,72.0,61.8,54.0,51.9,47.1,41.1,84,61,34,29.97,29.78,21,9,32,0.00
2013-6-19,55.0,53.8,53.0,48.9,47.2,46.0,83,78,75,29.92,29.89,22,10,29,0.00
2013-6-24,68.0,61.1,56.0,54.8,52.7,48.3,89,75,54,29.71,29.61,16,5,21,0.01
2013-6-25,68.0,58.0,53.0,61.2,56.3,53.0,100,95,63,29.89,29.71,12,1,18,0.31
2013-6-26,71.0,60.1,53.0,59.4,55.5,51.7,100,87,55,30.04,29.89,13,2,19,0.03
2013-6-27,82.0,67.9,56.0,63.4,58.3,52.1,100,75,44,30.11,29.97,14,3,17,0.00
2013-6-28,94.0,77.1,59.0,64.8,60.0,55.5,100,61,30,30.15,29.81,15,3,21,0.00
2013-6-29,87.0,75.9,66.0,64.9,60.5,57.3,83,61,41,29.98,29.79,19,10,26,0.00
2013-6-30,100.0,81.1,61.0,68.4,59.3,53.0,85,52,25,29.97,29.59,11,2,15,0.00
2013-7-1,88.0,77.6,67.0,67.3,64.5,60.1,91,66,45,29.87,29.71,19,7,24,0.00
2013-7-2,90.0,77.7,66.0,66.3,62.8,53.4,93,64,34,29.95,29.74,25,10,34,0.00
2013-7-3,84.0,78.1,68.0,55.0,50.9,42.1,61,40,31,29.98,29.80,28,15,31,0.00
2013-7-4,76.0,66.3,57.0,54.5,51.1,45.1,79,59,41,30.00,29.81,26,13,35,0.00
2013-7-5,73.0,64.3,57.0,54.9,51.4,47.9,82,64,49,29.93,29.78,29,13,33,0.00
2013-7-6,77.0,66.0,55.0,59.7,54.6,50.9,96,69,45,29.92,29.67,21,9,25,0.00
2013-7-7,79.0,68.5,59.0,60.1,57.1,54.4,95,69,45,29.86,29.66,27,12,29,0.00
2013-7-8,81.0,68.8,58.0,60.8,56.2,51.8,91,67,41,29.95,29.81,26,12,30,0.00
2013-7-9,87.0,73.8,58.0,63.0,57.2,50.9,92,60,35,30.04,29.76,16,6,23,0.00
2013-7-10,84.0,71.8,61.0,61.7,55.1,49.4,86,59,33,29.96,29.71,25,11,29,0.00
2013-7-11,75.0,64.5,54.0,52.0,47.9,44.2,82,57,37,29.97,29.78,29,13,33,0.00
2013-7-12,74.0,63.8,54.0,51.1,48.6,45.5,84,60,39,30.01,29.84,25,14,33,0.00
2013-7-13,85.0,68.2,53.0,55.6,45.7,26.2,91,52,13,30.13,29.85,14,5,17,0.00
2013-7-14,89.0,70.9,52.0,54.3,46.8,36.4,86,47,18,30.09,29.74,17,5,27,0.00
2013-7-15,92.0,74.4,58.0,53.6,47.4,43.4,74,43,20,29.96,29.62,17,5,23,0.00
2013-7-16,88.0,74.4,60.0,58.7,47.8,38.2,60,40,22,29.87,29.64,15,3,29,0.00
2013-7-17,80.0,70.6,62.0,58.1,53.8,44.8,82,58,29,30.05,29.79,26,11,31,0.00
2013-7-18,83.0,70.4,57.0,58.0,55.5,50.6,98,63,35,30.11,29.85,21,11,27,0.00
2013-7-19,82.0,71.1,60.0,62.3,57.7,54.3,90,65,43,30.03,29.79,20,11,27,0.00
2013-7-20,78.0,69.7,60.0,61.8,58.8,55.2,98,70,50,29.94,29.71,29,13,36,0.00
2013-7-21,83.0,70.3,59.0,60.2,56.4,53.4,93,64,40,29.84,29.64,31,14,35,0.00
2013-7-22,70.0,68.2,67.0,59.4,58.6,58.0,75,72,68,29.80,29.77,16,7,29,0.00
2013-7-26,77.0,72.7,69.0,59.6,55.9,52.1,58,56,55,29.96,29.88,21,13,31,0.00
2013-7-27,80.0,68.8,58.0,52.6,48.3,45.2,71,50,32,30.05,29.79,33,16,38,0.00
2013-7-28,75.0,65.0,56.0,54.0,51.0,46.9,83,62,37,29.93,29.77,31,15,36,0.00
2013-7-29,80.0,66.5,55.0,56.5,52.0,46.5,91,63,32,29.93,29.74,19,10,25,0.00
2013-7-30,84.0,71.3,60.0,58.7,54.6,43.4,90,59,25,30.02,29.85,18,10,26,0.00
2013-7-31,69.0,68.5,68.0,56.2,54.9,53.6,66,62,58,29.98,29.97,13,9,18,0.00
2013-8-1,70.0,64.4,60.0,56.1,54.7,53.0,87,72,58,30.01,29.90,33,17,39,0.00
2013-8-2,70.0,63.8,58.0,55.5,53.0,49.8,85,69,53,30.05,29.97,21,12,30,0.00
2013-8-3,85.0,69.9,56.0,60.9,56.1,50.4,100,66,33,30.07,29.82,12,5,18,0.00
2013-8-4,93.0,75.2,57.0,61.8,56.2,46.7,97,58,22,30.01,29.68,15,3,23,0.00
2013-8-5,89.0,75.4,61.0,63.1,60.1,55.9,98,62,35,29.93,29.67,19,7,26,0.00
2013-8-6,90.0,76.2,60.0,62.8,55.6,44.0,98,54,27,29.91,29.68,21,7,24,0.00
2013-8-7,89.0,74.9,62.0,57.8,54.5,50.0,79,51,31,29.91,29.68,22,12,30,0.00
2013-8-8,80.0,71.2,62.0,62.6,58.0,54.7,80,64,47,29.91,29.72,22,11,30,0.00
2013-8-9,82.0,70.5,63.0,66.8,61.2,57.3,100,75,47,29.90,29.61,22,8,30,0.32
2013-8-10,78.0,68.4,61.0,63.8,61.5,57.3,100,80,55,29.91,29.78,18,7,27,0.00
2013-8-11,80.0,70.3,63.0,61.6,57.5,51.8,88,66,40,29.97,29.80,20,9,24,0.00
2013-8-12,82.0,69.3,57.0,59.7,57.1,54.5,100,68,41,30.00,29.80,19,8,27,0.00
2013-8-13,87.0,71.9,58.0,59.4,55.1,50.0,98,61,29,30.04,29.73,17,7,20,0.00
2013-8-14,84.0,71.4,60.0,58.8,53.6,48.3,80,56,36,29.91,29.74,20,6,24,0.00
2013-8-15,82.0,72.4,63.0,63.5,58.6,53.5,82,63,45,29.89,29.76,20,6,27,0.00
2013-8-16,81.0,71.7,65.0,65.7,63.0,59.2,100,75,52,29.93,29.80,18,6,21,0.01
2013-8-17,82.0,72.3,63.0,64.3,57.8,53.2,90,63,41,30.00,29.82,24,9,30,0.00
2013-8-18,83.0,71.7,61.0,61.0,57.7,50.8,97,65,34,30.05,29.84,23,10,28,0.00
2013-8-19,84.0,72.5,61.0,59.3,55.4,49.1,89,58,35,30.01,29.83,24,10,30,0.00
2013-8-20,83.0,73.0,59.0,58.8,54.6,49.8,90,55,35,30.05,29.79,18,8,22,0.00
2013-8-21,90.0,71.5,54.0,54.9,48.1,41.1,88,49,21,30.03,29.74,16,2,20,0.00
2013-8-22,76.0,67.8,59.0,62.8,52.4,42.8,96,59,44,29.89,29.72,11,2,19,0.06
2013-8-23,74.0,68.1,62.0,64.6,58.3,52.7,100,72,48,29.83,29.73,23,9,29,0.02
2013-8-24,77.0,67.5,60.0,58.7,54.6,50.9,93,66,41,29.85,29.70,23,8,29,0.00
2013-8-25,70.0,61.5,57.0,61.0,56.6,50.3,100,85,55,29.90,29.79,16,4,21,0.23
2013-8-26,79.0,64.3,55.0,59.7,55.9,51.7,100,78,45,29.95,29.77,15,3,19,0.00
2013-8-27,86.0,69.2,53.0,61.1,54.6,48.4,100,64,31,29.97,29.61,18,4,25,0.01
2013-8-28,83.0,72.6,62.0,62.7,59.6,55.7,94,65,42,29.81,29.67,16,7,22,0.00
2013-8-29,77.0,69.2,63.0,65.4,61.4,57.4,100,77,52,29.98,29.79,17,5,26,0.03
2013-8-30,81.0,71.0,64.0,63.7,59.4,54.5,99,70,43,30.07,29.89,16,7,21,0.00
2013-8-31,91.0,73.1,55.0,59.4,54.0,48.8,100,58,26,30.03,29.63,10,2,17,0.00
2013-9-1,85.0,72.4,62.0,59.4,56.9,53.5,87,60,40,29.83,29.59,21,7,28,0.00
2013-9-2,85.0,72.7,64.0,59.6,56.1,53.3,73,57,38,29.83,29.66,20,9,26,0.00
2013-9-3,81.0,71.3,64.0,59.7,56.6,54.5,75,61,42,29.90,29.75,19,9,28,0.00
2013-9-4,78.0,68.6,62.0,59.2,57.3,55.2,86,68,47,29.93,29.82,20,9,34,0.00
2013-9-5,72.0,63.7,57.0,62.0,58.4,55.6,100,84,60,29.99,29.77,22,9,28,0.17
2013-9-6,68.0,60.5,56.0,60.0,57.2,53.7,100,90,63,30.09,29.97,20,4,24,0.45
2013-9-7,82.0,66.5,53.0,62.9,55.0,49.7,100,72,36,30.10,29.81,8,1,11,0.00
2013-9-8,87.0,70.5,55.0,64.3,55.7,47.8,97,64,28,30.07,29.79,13,2,15,0.00
2013-9-9,84.0,70.5,58.0,65.3,60.6,54.0,100,74,46,29.98,29.73,18,5,23,0.00
2013-9-10,93.0,74.6,58.0,64.5,56.5,47.9,100,61,23,29.95,29.66,16,2,19,0.00
2013-9-11,96.0,77.2,61.0,57.5,53.3,48.7,77,47,24,29.95,29.67,13,2,17,0.00
2013-9-12,86.0,72.7,61.0,65.3,58.3,53.1,87,63,40,29.94,29.67,19,5,19,0.00
2013-9-13,82.0,73.7,65.0,63.3,61.5,59.3,92,67,49,29.83,29.62,19,11,29,0.00
2013-9-14,95.0,72.6,59.0,68.0,60.2,52.4,100,72,24,29.81,29.47,16,4,21,0.00
2013-9-15,74.0,66.7,62.0,65.0,60.6,56.8,100,82,60,29.80,29.59,33,11,41,0.00
2013-9-16,70.0,63.9,59.0,56.8,54.5,51.4,89,72,56,29.89,29.79,21,12,30,0.00
2013-9-17,69.0,60.1,56.0,57.0,51.6,44.6,98,75,43,29.91,29.73,24,11,33,0.00
2013-9-18,70.0,60.3,52.0,51.5,48.2,44.3,85,66,41,30.05,29.91,21,8,29,0.00
2013-9-19,80.0,60.1,43.0,47.0,43.4,38.1,100,62,25,30.10,29.71,13,2,18,0.00
2013-9-20,77.0,61.1,47.0,58.0,45.9,35.3,100,61,27,29.80,29.50,27,4,33,0.06
2013-9-21,71.0,58.9,52.0,56.7,53.1,48.8,100,84,47,29.70,29.58,14,2,19,0.00
2013-9-30,57.0,51.6,48.0,52.9,48.9,43.4,100,91,66,30.04,29.80,14,4,27,0.18
2013-10-1,54.0,47.4,42.0,49.5,46.2,42.0,100,96,67,30.26,30.03,10,2,15,0.18
2013-10-2,56.0,46.0,42.0,47.4,43.9,40.7,100,93,63,30.26,30.05,10,3,19,0.01
2013-10-3,54.0,46.2,42.0,45.0,42.7,39.8,100,88,67,30.36,30.18,12,4,14,0.00
2013-10-4,66.0,53.9,42.0,48.2,43.0,40.1,100,69,39,30.59,30.32,5,0,8,0.00
2013-10-5,71.0,51.8,38.0,48.3,40.0,34.0,100,69,31,30.46,30.11,7,1,12,0.00
2013-10-6,71.0,58.3,43.0,52.6,42.5,35.8,77,57,37,30.21,29.87,5,1,9,0.00
2013-10-7,58.0,51.6,49.0,51.5,46.3,43.7,100,82,65,30.08,29.99,24,9,24,0.00
2013-10-8,53.0,48.9,43.0,48.2,44.9,41.3,100,86,70,30.08,29.94,21,6,31,0.00
2013-10-9,59.0,47.0,38.0,47.5,41.8,34.4,100,85,46,30.18,29.96,6,0,7,0.00
2013-10-10,60.0,51.4,46.0,48.5,44.9,36.5,100,81,46,30.07,29.89,23,8,32,0.00
2013-10-11,57.0,49.7,44.0,48.0,44.8,41.3,100,85,57,30.15,30.06,14,3,17,0.00
2013-10-12,54.0,48.6,43.0,47.5,45.5,42.1,100,89,68,30.21,30.06,10,4,13,0.00
2013-10-13,66.0,49.5,39.0,49.8,41.2,35.8,100,77,40,30.35,30.14,6,1,7,0.00
2013-10-14,65.0,48.5,37.0,43.0,39.4,34.3,100,75,36,30.46,30.27,11,1,12,0.00
2013-10-15,65.0,47.7,34.0,42.7,37.1,32.2,100,70,36,30.48,30.15,8,1,12,0.00
2013-10-16,66.0,48.8,36.0,44.7,38.2,32.2,100,71,36,30.24,30.05,7,1,10,0.00
2013-10-17,67.0,50.6,37.0,43.7,38.7,33.7,100,68,37,30.33,30.13,6,0,10,0.00
2013-10-18,67.0,49.9,35.0,45.6,38.6,32.0,100,69,35,30.36,30.09,7,0,10,0.00
2013-10-19,67.0,49.9,36.0,49.8,40.1,31.4,100,73,38,30.24,29.98,5,1,6,0.00
2013-10-20,71.0,52.4,39.0,53.6,43.0,36.2,100,74,39,30.24,29.99,5,1,7,0.00
2013-10-21,73.0,54.8,41.0,49.0,43.3,33.9,98,69,35,30.23,29.98,8,1,12,0.00
2013-10-22,71.0,54.1,41.0,48.4,43.6,35.5,100,71,39,30.23,29.96,10,1,11,0.00
2013-10-23,70.0,53.9,40.0,50.2,44.4,36.0,100,74,43,30.17,29.95,10,1,11,0.00
2013-10-24,68.0,52.5,41.0,53.7,44.5,37.1,100,77,46,30.17,29.94,5,1,7,0.00
2013-10-25,67.0,50.9,41.0,54.5,45.2,37.7,100,84,48,30.28,30.09,5,1,9,0.00
2013-10-26,63.0,50.1,44.0,54.2,46.6,40.8,100,90,55,30.33,30.12,5,0,6,0.00
2013-10-27,54.0,48.0,45.0,48.5,46.1,39.8,100,94,61,30.17,29.81,29,6,38,0.06
2013-10-28,58.0,47.9,36.0,45.8,32.9,26.2,92,58,33,30.03,29.83,10,2,12,0.00
2013-10-29,57.0,41.4,29.0,34.3,28.3,21.9,95,64,29,30.14,29.95,7,0,7,0.01
2013-10-30,58.0,44.7,30.0,38.1,33.6,30.0,100,69,39,30.17,30.04,24,7,31,0.00
2013-10-31,59.0,52.4,49.0,50.9,46.2,34.4,100,80,56,30.27,30.11,17,8,25,0.00
2013-11-1,63.0,51.1,39.0,48.8,44.3,38.2,100,80,47,30.33,29.94,5,1,9,0.00
2013-11-2,53.0,46.5,38.0,50.0,43.3,36.0,100,89,60,30.05,29.71,29,8,36,0.81
2013-11-3,49.0,42.3,39.0,42.5,39.0,33.0,100,89,58,30.15,30.01,20,6,25,0.14
2013-11-4,44.0,40.2,37.0,43.0,39.4,37.0,100,97,85,30.22,30.14,7,0,10,0.01
2013-11-5,48.0,43.5,39.0,48.0,43.4,39.0,100,100,94,30.24,30.13,14,1,14,0.10
2013-11-6,49.0,45.3,33.0,48.0,45.1,33.0,100,99,90,30.35,30.23,9,1,12,0.29
2013-11-7,47.0,43.9,38.0,47.0,42.4,30.0,100,95,78,30.27,29.91,19,3,30,0.23
2013-11-8,50.0,45.6,40.0,45.2,42.5,39.2,100,89,73,30.21,30.05,15,3,19,0.04
2013-11-9,47.0,41.6,37.0,43.7,40.2,37.0,100,95,84,30.22,30.13,3,0,4,0.00
2013-11-10,52.0,44.1,39.0,45.0,41.4,38.2,100,91,69,30.28,30.13,4,0,6,0.00
2013-11-11,47.0,44.6,42.0,43.5,42.4,41.4,100,92,82,30.37,30.25,7,1,9,0.00
2013-11-12,53.0,46.5,43.0,50.2,44.9,40.4,100,94,66,30.41,30.25,9,1,11,0.09
2013-11-13,57.0,48.3,37.0,47.9,44.8,35.2,100,89,57,30.46,30.32,14,3,15,0.00
2013-11-14,51.0,43.9,38.0,43.4,40.4,38.0,100,88,67,30.32,30.06,20,6,28,0.00
2013-11-15,46.0,43.8,42.0,42.5,39.3,35.5,96,84,72,30.07,29.46,27,9,31,0.00
2013-11-16,46.0,42.5,39.0,44.0,39.7,36.2,100,90,71,29.82,29.44,31,15,36,0.12
2013-11-17,48.0,44.3,41.0,46.7,43.5,39.4,100,97,81,30.00,29.82,11,1,26,0.03
2013-11-18,48.0,43.2,40.0,46.4,43.0,40.0,100,99,91,30.00,29.86,3,0,8,0.00
2013-11-19,45.0,42.3,39.0,40.8,36.6,32.0,85,80,71,29.98,29.83,18,10,21,0.00
2013-11-20,43.0,34.3,22.0,34.3,24.1,13.8,100,69,36,30.60,29.98,22,3,28,0.00
2013-11-21,41.0,27.5,17.0,21.0,17.4,11.6,100,70,31,30.84,30.60,5,0,10,0.00
2013-11-22,39.0,27.1,17.0,22.4,19.1,14.3,100,74,44,30.91,30.73,10,1,12,0.00
2013-11-23,41.0,28.6,19.0,25.0,21.4,15.0,100,77,43,30.76,30.48,7,1,11,0.00
2013-11-24,41.0,28.7,20.0,26.5,22.8,16.6,100,81,47,30.54,30.34,7,0,8,0.00
2013-11-25,44.0,29.8,21.0,29.1,23.5,18.1,100,80,46,30.61,30.43,9,0,9,0.00
2013-11-26,40.0,31.1,23.0,29.2,26.4,19.5,100,84,57,30.50,30.29,3,0,5,0.00
2013-11-27,40.0,31.2,25.0,30.7,27.8,25.0,100,89,58,30.34,30.19,5,0,7,0.00
2013-11-28,45.0,31.3,24.0,33.7,27.7,22.9,100,88,56,30.36,30.18,4,0,6,0.00
2013-11-29,35.0,30.5,24.0,34.5,29.6,24.0,100,97,82,30.41,30.31,2,0,3,0.00
2013-11-30,47.0,38.9,32.0,43.5,37.0,32.0,100,93,73,30.43,30.24,9,1,12,0.00
2013-12-1,54.0,47.1,41.0,52.7,47.0,41.0,100,100,90,30.25,29.85,14,2,20,0.00
2013-12-2,46.0,40.4,35.0,46.0,37.2,30.7,100,89,69,30.03,29.84,24,9,32,0.00
2013-12-3,39.0,31.7,21.0,29.5,22.8,15.5,96,71,41,30.42,30.22,10,2,15,0.00
2013-12-4,33.0,24.1,16.0,21.0,16.0,12.1,100,74,45,30.50,30.39,8,1,10,0.00
2013-12-5,24.0,17.1,11.0,19.2,14.8,11.0,100,91,65,30.51,30.37,4,0,7,0.00
2013-12-6,19.0,17.2,15.0,18.0,16.9,14.8,100,99,91,30.44,30.28,13,1,13,0.00
2013-12-7,21.0,13.8,3.0,17.0,8.7,2.1,100,82,49,30.66,30.32,9,1,10,0.00
2013-12-8,19.0,7.6,0.0,10.9,5.6,0.0,100,92,55,30.79,30.60,3,0,7,0.00
2013-12-9,35.0,19.0,5.0,31.6,16.7,5.0,100,92,76,30.78,30.47,20,4,24,0.00
2013-12-10,37.0,31.6,24.0,33.7,30.6,24.0,100,96,86,30.56,30.46,19,5,28,0.00
2013-12-11,33.0,25.1,20.0,24.5,21.6,16.2,100,88,54,30.58,30.46,8,0,11,0.00
2013-12-12,30.0,23.1,17.0,26.8,21.5,17.0,100,94,73,30.48,30.26,3,0,5,0.00
2013-12-13,46.0,36.3,28.0,44.4,34.8,26.2,100,94,77,30.49,30.31,11,1,15,0.00
2013-12-14,42.0,37.4,35.0,41.5,37.2,35.0,100,99,89,30.50,30.39,3,0,4,0.00
2013-12-15,49.0,43.9,36.0,45.3,41.8,35.0,100,93,68,30.46,30.34,32,4,33,0.00
2013-12-16,50.0,41.4,33.0,44.0,38.8,33.0,100,92,65,30.50,30.34,16,1,18,0.00
2013-12-17,40.0,32.6,27.0,37.1,32.0,27.0,100,98,83,30.39,30.15,19,2,19,0.00
2013-12-18,45.0,39.1,33.0,39.0,36.3,28.5,100,90,70,30.18,30.00,18,6,19,0.00
2013-12-19,41.0,31.4,26.0,31.0,26.0,18.5,100,83,40,30.40,30.17,7,0,13,0.00
2013-12-20,46.0,36.8,28.0,43.5,33.8,23.5,100,89,65,30.25,29.75,34,11,41,0.00
2013-12-21,49.0,46.2,44.0,44.9,42.4,38.5,96,87,73,30.18,29.80,32,12,35,0.00
2013-12-22,50.0,47.0,43.0,47.1,44.7,41.4,100,92,84,30.33,30.17,27,10,29,0.00
2013-12-23,52.0,47.2,43.0,49.7,43.9,35.9,100,89,74,30.54,30.17,33,9,36,0.00
2013-12-24,47.0,37.4,27.0,38.4,33.5,27.0,100,87,60,30.65,30.51,18,1,21,0.00
2013-12-25,39.0,29.3,24.0,33.6,28.3,24.0,100,97,70,30.65,30.47,3,0,6,0.00
2013-12-26,36.0,27.8,25.0,33.6,27.3,25.0,100,98,79,30.55,30.37,3,0,3,0.00
2013-12-27,42.0,30.6,24.0,41.0,30.3,24.0,100,99,90,30.43,30.24,18,2,21,0.00
2013-12-28,45.0,36.2,28.0,40.0,34.2,28.0,100,93,66,30.61,30.35,16,2,18,0.00
2013-12-29,34.0,29.9,26.0,34.0,29.9,26.0,100,100,100,30.59,30.34,3,0,6,0.00
2013-12-30,36.0,32.2,30.0,34.2,31.6,30.0,100,98,87,30.37,30.27,9,0,11,0.00
2013-12-31,48.0,40.3,30.0,40.0,36.8,30.0,100,88,69,30.41,30.25,13,2,17,0.00
2014-1-1,44.0,35.6,30.0,40.0,34.7,30.0,100,97,75,30.52,30.38,8,0,12,0.00
2014-1-2,48.0,37.1,32.0,44.9,35.2,29.7,100,93,64,30.44,29.95,31,2,37,0.00